Location: Newark
(39.9267°N, 1.8017°W)
Time: 10:00:42
(UTC+00:00)

N. Korean satellite - Visible Passes

Search period start: 19 March 2019 00:00
Search period end: 29 March 2019 00:00
Orbit: 455 x 511 km, 97.2° (Epoch: 18 March)

Date Brightness Start Highest point End Pass type
(mag) Time Alt. Az. Time Alt. Az. Time Alt. Az.
20 Mar 9.7 05:32:33 10° NE 05:35:14 20° E 05:37:56 10° SE visible
24 Mar 9.8 05:26:54 10° NE 05:29:22 17° E 05:31:50 10° SE visible
28 Mar 9.9 05:21:14 10° NE 05:23:25 15° E 05:25:37 10° SE visible
